This demonstration page uses our WeatherBlox Daily Observations layout. Learn more.

Left ArrowRight Arrow

Hourly Observations for July 16, 2018

Temp ( °F °C ) Dew Point ( °F °C ) Humidity (%) Winds ( mph kmh ) Pressure ( in mb ) Visibility ( mi km ) Precip ( " mm )
12:59 am 00:59 Clear 78 25.6 69 20.6 74 74 SSW 10 17 30.05 1018 10 16 0.00 0.00
1:59 am 01:59 Mostly Cloudy 77 25 69 20.6 77 77 SSW 8 13 30.04 1017 10 16 0.00 0.00
2:59 am 02:59 Mostly Cloudy 76 24.4 70 21.1 82 82 SSW 6 9 30.04 1017 10 16 0.00 0.00
3:59 am 03:59 Mostly Cloudy 76 24.4 69 20.6 79 79 SSW 8 13 30.03 1017 10 16 0.00 0.00
4:59 am 04:59 Mostly Cloudy 76 24.4 69 20.6 79 79 SW 6 9 30.04 1017 9 14 0.00 0.00
5:59 am 05:59 Cloudy 76 24.4 68 20 77 77 SW 7 11 30.04 1017 10 16 0.00 0.00
6:59 am 06:59 Cloudy 76 24.4 68 20 77 77 SSW 5 7 30.05 1018 9 14 0.00 0.00
7:59 am 07:59 Cloudy 76 24.4 68 20 77 77 S 5 7 30.05 1018 10 16 0.00 0.00
8:59 am 08:59 Cloudy 78 25.6 68 20 71 71 SSW 5 7 30.05 1018 10 16 0.00 0.00
9:59 am 09:59 Cloudy 80 26.7 69 20.6 69 69 SSW 7 11 30.05 1018 10 16 0.00 0.00
10:59 am 10:59 Cloudy 82 27.8 69 20.6 65 65 SSW 7 11 30.05 1018 9 14 0.00 0.00
11:59 am 11:59 Cloudy 87 30.6 71 21.7 59 59 SSW 10 17 30.04 1017 9 14 0.00 0.00
12:59 pm 12:59 Mostly Cloudy 87 30.6 71 21.7 59 59 SW 8 13 30.04 1017 9 14 0.00 0.00
1:59 pm 13:59 Mostly Cloudy 89 31.7 72 22.2 57 57 SSW 9 15 30.04 1017 9 14 0.00 0.00
2:59 pm 14:59 Mostly Cloudy 90 32.2 72 22.2 56 56 VRB 6 9 30.02 1017 9 14 0.00 0.00
3:59 pm 15:59 Mostly Cloudy 89 31.7 71 21.7 55 55 S 8 13 29.99 1016 9 14 0.00 0.00
4:59 pm 16:59 Mostly Cloudy 90 32.2 72 22.2 56 56 S 9 15 29.98 1015 9 14 0.00 0.00
5:59 pm 17:59 Mostly Cloudy 89 31.7 69 20.6 52 52 SSW 10 17 29.97 1015 9 14 0.00 0.00
6:59 pm 18:59 Mostly Cloudy 87 30.6 69 20.6 55 55 SSW 9 15 29.98 1015 9 14 0.00 0.00
7:59 pm 19:59 Mostly Cloudy 85 29.4 70 21.1 61 61 SSW 8 13 29.98 1015 10 16 0.00 0.00
8:59 pm 20:59 Mostly Cloudy 84 28.9 70 21.1 63 63 S 7 11 29.98 1015 10 16 0.00 0.00
9:59 pm 21:59 Partly Cloudy 82 27.8 72 22.2 72 72 S 12 19 30.00 1016 10 16 0.00 0.00
10:59 pm 22:59 Partly Cloudy 80 26.7 72 22.2 76 76 S 7 11 30.00 1016 10 16 0.00 0.00
11:59 pm 23:59 Partly Cloudy 80 26.7 72 22.2 76 76 SSW 10 17 30.00 1016 10 16 0.00 0.00

Powered by AerisWeather